[[{"header":{"parameterUnit":"m.s-1","parameterCategory":1,"la1":30.2991,"la2":30.254,"lo1":-89.0895,"lo2":-89.0444,"dy":0.0017,"dx":0.0017,"nx":28,"ny":28,"refTime":"2024-11-28T09:00:00:Z","depth":0,"parameterNumber":2,"parameterNumberName":"U-component_of_WINDS"},"data":[0,0,0,0,0,0,0,0,0,0,0,0,0,0,0,0,0,0,0,0,0,0,0,0,0,0,0,0,0,0,0,0,0,0,0,0,0,0,0,0,0,0,0,0,0,0,0,0,0,0,0,0,0,0,0,0,0,0,2.953,2.9531,0,2.9647,2.9649,2.965,2.964,2.9639,2.9637,2.9635,2.9762,2.9767,2.9772,0,0,0,0,0,0,0,0,0,0,0,0,0,2.9306,2.931,2.953,2.9531,2.9533,2.9647,2.9649,2.965,2.9641,2.9639,2.9636,2.9634,2.9761,2.9767,2.9773,0,0,0,0,0,0,0,0,0,0,0,0,0,2.9412,2.9312,2.953,2.9542,2.9544,2.9647,2.9649,2.9651,2.9641,2.9638,2.9636,2.9633,2.9759,2.9766,2.9774,2.9874,0,0,2.9797,2.98,0,0,0,0,0,0,0,0,2.9406,2.942,2.9538,2.9541,2.9544,2.9626,2.9616,2.9726,2.9642,2.9604,2.9635,2.9632,2.972,2.973,2.9758,2.988,2.9886,2.9797,2.9802,2.9805,2.9807,0,0,0,0,0,0,0,2.9398,2.9415,2.9576,2.954,2.9543,2.9544,2.9556,2.9637,2.9676,2.9607,2.9607,2.9621,2.9721,2.9751,2.9761,2.9888,2.9797,2.9804,2.9809,2.9812,3.0102,3.0105,0,0,0,0,0,0,2.9387,2.9409,2.9573,2.958,2.9466,2.955,2.9564,2.9603,2.9675,2.9683,2.9623,2.962,2.974,2.9753,2.9766,2.9891,2.9805,2.9812,2.9817,3.0099,3.0103,3.0106,0,0,0,0,0,0,2.9382,2.9402,2.9568,2.9494,2.9515,2.9557,2.9601,2.9606,2.9637,2.9686,2.9694,2.9646,2.9738,2.9755,2.9848,2.9895,2.9816,2.9823,3.0095,3.01,3.0104,3.014,0,0,0,0,0,0,2.9376,2.94,2.9436,2.9495,2.9519,2.9645,2.9604,2.9611,2.9649,2.9646,2.9711,2.9719,2.9737,2.9836,2.9855,2.9904,2.9829,3.0091,3.0097,3.0103,3.0135,3.0145,3.0154,0,0,0,0,0,2.9368,2.9442,2.9438,2.9458,2.9565,2.9648,2.9662,2.968,2.9653,2.9691,2.9724,2.9717,2.9887,2.9846,2.9867,2.9919,3.0088,3.0096,3.0103,3.013,3.0143,3.0154,0,0,0,0,0,0,2.939,2.945,2.9446,2.9541,2.9589,2.9646,2.9695,2.9692,2.975,2.9746,2.9767,2.9782,2.9876,2.9907,2.986,3.0022,2.9984,2.9996,2.9998,3.0011,3.002,3.0012,2.9835,0,0,0,0,0,2.9405,2.9465,2.9515,2.9595,2.9619,2.9653,2.9689,2.9699,2.9751,2.9771,2.9811,2.9863,2.9929,2.9972,3.0034,3.0139,3.0155,3.0186,3.0195,3.0203,3.0213,3.0275,3.029,3.013,3.0129,3.0129,0,0,2.9439,2.9479,2.9516,2.96,2.9638,2.9703,2.967,2.9738,2.9787,2.9783,2.9872,2.9903,2.9964,3.0064,3.011,3.0092,3.0261,3.0212,3.0218,3.0224,3.0283,3.0299,3.0312,3.0134,3.0133,3.0133,0,0,2.9532,2.9568,2.9639,2.9678,2.9736,2.9759,2.9776,2.9834,2.9854,2.9944,2.9942,3.0002,3.0114,3.0158,3.0195,3.0309,3.0306,3.0329,3.038,3.044,3.0452,3.0464,3.0507,3.0522,3.0339,3.0339,3.0339,0,2.9567,2.9661,2.9676,2.9746,2.9785,2.9782,2.9856,2.9895,2.9971,3.0,2.9978,3.012,3.0161,3.0272,3.03,3.033,3.0353,3.0322,3.0449,3.046,3.0471,3.0513,3.0529,3.0341,3.0341,3.0341,3.0341,0,2.9702,2.9767,2.9818,2.9891,2.9936,3.0007,3.0037,3.0081,3.0088,3.0114,3.0208,3.0256,3.033,3.0357,3.0365,3.0472,3.0459,3.0443,3.0406,3.0489,3.0528,3.0544,3.0345,3.0344,3.0343,3.0343,0,0,2.9811,2.9892,2.9911,2.9945,3.0011,3.0063,3.0137,3.0207,3.0246,3.03,3.0364,3.046,3.0447,3.0489,3.0502,3.0554,3.0645,3.0532,3.0534,3.0553,3.0769,3.0781,3.0799,3.0643,3.0646,3.0648,3.0764,0,2.9912,3.0039,3.0057,3.0171,3.0233,3.0234,3.0298,3.0348,3.0375,3.0434,3.0465,3.0534,3.0509,3.0535,3.0587,3.0622,3.0688,3.0614,3.0706,3.0709,3.0691,3.0819,3.0832,3.0939,3.078,3.0782,3.0784,0,3.0046,3.0103,3.0223,3.0282,3.0309,3.0367,3.0435,3.0491,3.0548,3.0565,3.0613,3.062,3.07,3.0659,3.0772,3.0721,3.076,3.0784,3.0789,3.0799,3.0752,3.0834,3.0973,3.099,3.0808,3.0806,3.0804,0,3.0116,3.0223,3.0309,3.0338,3.0409,3.045,3.0482,3.0536,3.0579,3.064,3.0668,3.0738,3.0777,3.0832,3.086,3.0827,3.0972,3.0933,3.0991,3.099,3.1022,3.1019,3.117,3.1045,3.1044,3.1044,3.1044,0,3.0228,3.0302,3.0341,3.0394,3.0479,3.05,3.0584,3.0615,3.0664,3.0726,3.0731,3.079,3.0822,3.0887,3.0909,3.1001,3.1018,3.1036,3.1041,3.1036,3.1034,3.1062,3.1056,3.1048,3.1047,3.1047,3.1046,0,3.032,3.0349,3.0443,3.0503,3.052,3.058,3.0633,3.0687,3.0714,3.0793,3.0812,3.0857,3.0933,3.0966,3.106,3.1076,3.1182,3.1181,3.1161,3.1164,3.122,3.1215,3.1396,3.1422,3.1278,3.1279,3.128,0,3.0389,3.0446,3.0513,3.0553,3.0586,3.0652,3.0696,3.0721,3.0766,3.0838,3.0884,3.096,3.1022,3.1145,3.1188,3.1261,3.1263,3.1322,3.1274,3.1268,3.1267,3.1263,3.1271,3.133,3.1332,3.1333,3.1334,0,3.0511,3.0523,3.0584,3.0652,3.0703,3.0758,3.0812,3.0846,3.088,3.0932,3.1009,3.1057,3.1154,3.1231,3.1307,3.1344,3.1346,3.1348,3.1366,3.1362,3.1349,3.1359,3.1187,3.1344,3.1343,3.1342,3.1342,3.1341,3.0595,3.0646,3.0702,3.0771,3.0814,3.0865,3.0919,3.0953,3.1018,3.1097,3.1109,3.1193,3.1253,3.1355,3.1395,3.1463,3.1449,3.1474,3.1481,3.1487,3.1492,3.1337,3.1477,3.1477,3.1477,3.1477,3.1477,0,3.0718,3.0754,3.0817,3.0892,3.0948,3.0943,3.1004,3.1051,3.1124,3.1179,3.124,3.1331,3.1407,3.1456,3.1533,3.1579,3.1582,3.1598,3.1596,3.1605,3.1499,3.1477,3.1595,3.1594,3.1594,3.1594,3.1594,3.1594,3.0788,3.0876,3.0896,3.1007,3.1043,3.1124,3.1159,3.1208,3.1252,3.1352,3.1415,3.1446,3.15,3.1581,3.1652,3.1665,3.1694,3.1712,3.1724,3.1624,3.1612,3.16,3.158,3.1717,3.1717,3.1825,3.1826,3.1827]},{"header":{"parameterUnit":"m.s-1","parameterCategory":1,"la1":30.2991,"la2":30.254,"lo1":-89.0895,"lo2":-89.0444,"dy":0.0017,"dx":0.0017,"nx":28,"ny":28,"refTime":"2024-11-28T09:00:00:Z","depth":0,"parameterNumber":3,"parameterNumberName":"V-component_of_WINDS"},"data":[0,0,0,0,0,0,0,0,0,0,0,0,0,0,0,0,0,0,0,0,0,0,0,0,0,0,0,0,0,0,0,0,0,0,0,0,0,0,0,0,0,0,0,0,0,0,0,0,0,0,0,0,0,0,0,0,0,0,2.8973,2.8974,0,2.9019,2.902,2.902,2.8979,2.8978,2.8976,2.8974,2.9022,2.9025,2.9028,0,0,0,0,0,0,0,0,0,0,0,0,0,2.8852,2.8855,2.8973,2.8974,2.8974,2.9019,2.902,2.902,2.898,2.8978,2.8976,2.8974,2.9021,2.9025,2.9028,0,0,0,0,0,0,0,0,0,0,0,0,0,2.8902,2.8855,2.8973,2.8959,2.8958,2.9019,2.902,2.9021,2.898,2.8978,2.8975,2.8973,2.902,2.9025,2.9029,2.9105,0,0,2.9042,2.9044,0,0,0,0,0,0,0,0,2.8899,2.8907,2.8961,2.896,2.896,2.8991,2.8995,2.9049,2.8981,2.8972,2.8974,2.8971,2.9014,2.9019,2.9033,2.9108,2.911,2.9042,2.9045,2.9047,2.9048,0,0,0,0,0,0,0,2.8896,2.8904,2.8991,2.8962,2.8961,2.8952,2.8956,2.9005,2.9007,2.8972,2.897,2.8976,2.9013,2.9029,2.9034,2.911,2.9042,2.9046,2.9048,2.905,2.9254,2.9256,0,0,0,0,0,0,2.8894,2.8902,2.899,2.8993,2.8923,2.8956,2.8961,2.8983,2.9006,2.9007,2.8978,2.8974,2.9023,2.9029,2.9035,2.9128,2.9047,2.9051,2.9053,2.9251,2.9254,2.9257,0,0,0,0,0,0,2.8891,2.8902,2.8988,2.8947,2.8957,2.8961,2.8987,2.8986,2.9001,2.901,2.901,2.8993,2.9021,2.9029,2.9089,2.9129,2.9052,2.9056,2.9247,2.9252,2.9256,2.9314,0,0,0,0,0,0,2.8888,2.8901,2.893,2.8948,2.8959,2.904,2.8989,2.8988,2.9009,2.9004,2.9024,2.9026,2.902,2.9083,2.9093,2.9134,2.906,2.9244,2.9249,2.9254,2.9309,2.932,2.933,0,0,0,0,0,2.8884,2.8944,2.8931,2.8942,2.8995,2.9043,2.9049,2.9041,2.9012,2.9041,2.9047,2.9025,2.9123,2.9089,2.9101,2.9143,2.9241,2.9248,2.9254,2.9304,2.9318,2.933,0,0,0,0,0,0,2.893,2.8946,2.8932,2.9,2.902,2.9036,2.9072,2.9056,2.9085,2.9079,2.9068,2.9073,2.9137,2.9146,2.9108,2.922,2.9178,2.9187,2.9212,2.9225,2.9235,2.9232,2.9063,0,0,0,0,0,2.8948,2.8985,2.8997,2.9056,2.9067,2.9068,2.9089,2.9081,2.9102,2.911,2.912,2.9142,2.9178,2.9202,2.9235,2.931,2.9315,2.9345,2.9356,2.9364,2.9372,2.9415,2.9429,2.9278,2.9278,2.9278,0,0,2.8986,2.8999,2.9023,2.9066,2.9081,2.9121,2.9075,2.9119,2.9149,2.9117,2.9174,2.9183,2.9206,2.9275,2.9305,2.9284,2.9415,2.9372,2.9379,2.9383,2.9423,2.9437,2.945,2.9283,2.9282,2.9281,0,0,2.9075,2.9088,2.914,2.9156,2.918,2.9181,2.9193,2.9212,2.9217,2.9274,2.9252,2.9288,2.9349,2.9368,2.9385,2.9485,2.9466,2.9496,2.9551,2.9593,2.9605,2.9615,2.9652,2.9666,2.9504,2.9504,2.9504,0,2.9119,2.9178,2.9168,2.9214,2.9234,2.9208,2.9261,2.9277,2.9311,2.9326,2.9302,2.9381,2.9395,2.9468,2.9493,2.9507,2.9522,2.9494,2.9603,2.9614,2.9624,2.9659,2.9673,2.9508,2.9507,2.9507,2.9507,0,2.9232,2.9273,2.9312,2.9346,2.937,2.9419,2.9418,2.9445,2.9436,2.9439,2.95,2.9516,2.9553,2.957,2.9561,2.9643,2.963,2.9605,2.9562,2.9642,2.9675,2.9689,2.9513,2.9512,2.951,2.951,0,0,2.935,2.938,2.9394,2.9411,2.9436,2.9468,2.9517,2.9554,2.9578,2.9603,2.9645,2.9699,2.9677,2.9697,2.969,2.9726,2.9807,2.9697,2.9698,2.9719,2.9901,2.9921,2.9937,2.9795,2.9797,2.9799,2.99,0,2.9441,2.9526,2.952,2.9601,2.964,2.9617,2.966,2.9682,2.9687,2.9722,2.9728,2.9767,2.9734,2.9747,2.9782,2.979,2.9844,2.9782,2.9835,2.9837,2.9831,2.9954,2.9974,3.0068,2.9913,2.9915,2.9916,0,2.9559,2.9589,2.9674,2.9696,2.9712,2.9751,2.9786,2.9819,2.9843,2.9845,2.9869,2.9857,2.9908,2.9864,2.9935,2.9894,2.9915,2.9923,2.9926,2.9932,2.9882,2.9964,3.0097,3.0112,2.9937,2.9935,2.9934,0,2.9639,2.97,2.9759,2.9774,2.9801,2.9829,2.9842,2.9864,2.9887,2.9918,2.9934,2.997,2.999,3.0019,3.0018,2.9985,3.0091,3.0046,3.0095,3.0096,3.0119,3.0118,3.0259,3.0131,3.0131,3.013,3.013,0,2.9742,2.9795,2.9796,2.9833,2.9893,2.9886,2.9946,2.9955,2.9976,3.0015,2.9997,3.0034,3.003,3.0068,3.0067,3.0128,3.0136,3.014,3.014,3.0143,3.0142,3.0157,3.0151,3.0134,3.0133,3.0133,3.0132,0,2.9841,2.9843,2.9907,2.9928,2.9935,2.9978,2.9997,3.0033,3.0037,3.0087,3.0099,3.0107,3.0151,3.0152,3.0202,3.0202,3.0277,3.0268,3.0269,3.0268,3.0317,3.0313,3.0474,3.0496,3.0352,3.0353,3.0355,0,2.9907,2.9947,2.9974,2.9999,3.0014,3.0054,3.0079,3.0075,3.0101,3.0134,3.0166,3.0209,3.0243,3.0314,3.0325,3.0364,3.0357,3.0411,3.0363,3.0366,3.036,3.0359,3.0364,3.0421,3.0422,3.0424,3.0425,0,3.0024,3.0025,3.006,3.0098,3.0128,3.0157,3.0184,3.0206,3.0206,3.0237,3.0282,3.0309,3.0361,3.0404,3.0443,3.0457,3.0442,3.044,3.0454,3.0457,3.0457,3.046,3.0296,3.0436,3.0435,3.0434,3.0434,3.0433,3.011,3.0146,3.0171,3.0213,3.0233,3.026,3.0295,3.0305,3.0343,3.0386,3.0381,3.0432,3.0458,3.0509,3.0526,3.0567,3.0548,3.0568,3.0573,3.0578,3.0585,3.045,3.0574,3.0573,3.0573,3.0573,3.0572,0,3.0228,3.0244,3.0282,3.0321,3.0355,3.0338,3.0368,3.0397,3.0442,3.0468,3.0502,3.0556,3.0599,3.0614,3.0655,3.0685,3.068,3.0697,3.0695,3.0699,3.0597,3.0582,3.0701,3.0701,3.0701,3.0701,3.0701,3.0701,3.0293,3.0354,3.0358,3.043,3.0446,3.0496,3.0515,3.054,3.0561,3.0622,3.0657,3.0667,3.0689,3.0733,3.0772,3.0775,3.0792,3.0813,3.0814,3.0719,3.0706,3.0693,3.0679,3.0816,3.0816,3.0912,3.0913,3.0913]}]]